Location: Peebles
(55.6412°N, 3.1714°W)
Time: 23:40:53
(UTC+01:00)

CENTAUR R/B - Pass Details

Date: 21 January 2022
Orbit: 716 x 1471 km, 63.4° (Epoch: 08 May)

Event Time Altitude Azimuth Distance (km) Brightness Sun altitude
Rises 19:12:42 0° 257° (WSW) 3,582 6.8 -23.0°
Reaches altitude 10° 19:15:06 10° 262° (W) 2,738 5.9 -23.4°
Maximum altitude 19:21:31 56° 340° (NNW) 1,318 3.2 -24.3°
Enters shadow 19:24:56 33° 43° (NE) 1,916 3.7 -24.7°
